SFJ001 ZSHC-RJFR

Flight info

Callsign SFJ001
Flight time N/A
Altitude 37100
Route OKTUG B221 NINAS G327 LAMEN/N0434F390 A593 SADLI Y590 BEDAR Y591 FUE V28 ONGHA
Aircraft A20N/M-SDE2E3FGHIJ1RWXY/LB1

Departure

Time 2026-05-04 15:24
Airport Hangzhou Xiaoshan International Airport (ZSHC)

Arrival

Time N/A
Airport Kitakyushu Airport (RJFR)
Time Latitude Longitude Altitude Speed Heading
2026-05-04 14:53 30.23334 120.43130 38 ft 0 kts 62°
2026-05-04 15:12 30.23332 120.43125 38 ft 2 kts 62°
2026-05-04 15:12 30.23325 120.43110 38 ft 2 kts 62°
2026-05-04 15:12 30.23318 120.43095 38 ft 2 kts 62°
2026-05-04 15:13 30.23311 120.43080 38 ft 2 kts 62°
2026-05-04 15:13 30.23307 120.43072 38 ft 0 kts 78°
2026-05-04 15:13 30.23308 120.43066 38 ft 0 kts 137°
2026-05-04 15:13 30.23313 120.43063 38 ft 1 kts 154°
2026-05-04 15:14 30.23315 120.43061 38 ft 0 kts 150°
2026-05-04 15:16 30.23229 120.43115 38 ft 12 kts 152°
2026-05-04 15:17 30.23209 120.43198 38 ft 12 kts 64°
2026-05-04 15:17 30.23289 120.43381 40 ft 12 kts 63°
2026-05-04 15:17 30.23329 120.43472 41 ft 13 kts 62°
2026-05-04 15:18 30.23378 120.43581 40 ft 17 kts 63°
2026-05-04 15:18 30.23440 120.43723 38 ft 20 kts 63°
2026-05-04 15:18 30.23504 120.43869 37 ft 20 kts 62°
2026-05-04 15:19 30.23455 120.44098 36 ft 16 kts 114°
2026-05-04 15:19 30.23484 120.44215 38 ft 14 kts 62°
2026-05-04 15:19 30.23582 120.44437 38 ft 15 kts 63°
2026-05-04 15:20 30.23634 120.44553 38 ft 16 kts 63°
2026-05-04 15:20 30.23696 120.44693 38 ft 20 kts 63°
2026-05-04 15:20 30.23762 120.44838 38 ft 20 kts 63°
2026-05-04 15:20 30.23816 120.44976 38 ft 14 kts 80°
2026-05-04 15:21 30.23785 120.45037 38 ft 6 kts 152°
2026-05-04 15:21 30.23770 120.45046 38 ft 0 kts 153°
2026-05-04 15:21 30.23767 120.45048 38 ft 0 kts 153°
2026-05-04 15:22 30.23747 120.45059 38 ft 9 kts 154°
2026-05-04 15:22 30.23662 120.45046 38 ft 11 kts 232°
2026-05-04 15:22 30.23656 120.45035 38 ft 0 kts 241°
2026-05-04 15:23 30.23650 120.45023 38 ft 6 kts 241°
2026-05-04 15:23 30.23516 120.44724 38 ft 81 kts 243°
2026-05-04 15:23 30.23146 120.43897 36 ft 146 kts 243°
2026-05-04 15:24 30.22097 120.41592 1043 ft 171 kts 240°
2026-05-04 15:24 30.20954 120.39100 2523 ft 178 kts 240°
2026-05-04 15:25 30.20319 120.37869 3149 ft 182 kts 226°
2026-05-04 15:25 30.19286 120.36904 3605 ft 197 kts 214°
2026-05-04 15:25 30.18126 120.35915 4039 ft 217 kts 218°
2026-05-04 15:26 30.15900 120.33067 4959 ft 259 kts 233°
2026-05-04 15:26 30.14788 120.31368 5614 ft 272 kts 234°
2026-05-04 15:26 30.12453 120.27824 7352 ft 282 kts 234°
2026-05-04 15:27 30.11257 120.26025 8263 ft 286 kts 234°
2026-05-04 15:27 30.08808 120.22371 10001 ft 294 kts 234°
2026-05-04 15:28 30.06205 120.18518 11253 ft 319 kts 233°
2026-05-04 15:28 30.04834 120.16474 11904 ft 328 kts 233°
2026-05-04 15:28 30.01798 120.12543 12847 ft 332 kts 214°
2026-05-04 15:29 29.99657 120.11535 13158 ft 339 kts 191°
2026-05-04 15:30 29.90529 120.15248 16417 ft 371 kts 154°
2026-05-04 15:30 29.84048 120.20007 16801 ft 386 kts 128°
2026-05-04 15:31 29.82910 120.26094 18108 ft 406 kts 77°
2026-05-04 15:31 29.83870 120.29176 18599 ft 417 kts 62°
2026-05-04 15:32 29.88051 120.38841 18779 ft 475 kts 63°
2026-05-04 15:32 29.90605 120.45518 18786 ft 433 kts 65°
2026-05-04 15:33 29.92834 120.51605 18789 ft 398 kts 65°
2026-05-04 15:34 29.96007 120.60332 18796 ft 393 kts 65°
2026-05-04 15:34 29.97065 120.63249 18793 ft 393 kts 65°
2026-05-04 15:34 29.99176 120.69089 18791 ft 393 kts 65°
2026-05-04 15:35 30.01271 120.74892 18796 ft 396 kts 65°
2026-05-04 15:35 30.02367 120.77927 19162 ft 413 kts 65°
2026-05-04 15:35 30.03450 120.80938 20121 ft 411 kts 65°
2026-05-04 15:36 30.05652 120.87062 21591 ft 420 kts 65°
2026-05-04 15:36 30.06779 120.90197 22173 ft 427 kts 65°
2026-05-04 15:36 30.07944 120.93375 22750 ft 433 kts 63°
2026-05-04 15:37 30.09332 120.96485 23307 ft 438 kts 57°
2026-05-04 15:37 30.11003 120.99459 23871 ft 441 kts 51°
2026-05-04 15:37 30.12834 121.02331 24387 ft 446 kts 49°
2026-05-04 15:37 30.14693 121.05163 24887 ft 452 kts 49°
2026-05-04 15:38 30.16600 121.08073 25404 ft 456 kts 49°
2026-05-04 15:38 30.18534 121.11050 25871 ft 462 kts 49°
2026-05-04 15:38 30.20451 121.14020 26308 ft 468 kts 49°
2026-05-04 15:38 30.22405 121.17064 26748 ft 473 kts 49°
2026-05-04 15:39 30.24359 121.20112 27182 ft 477 kts 49°
2026-05-04 15:39 30.26324 121.23287 27594 ft 484 kts 52°
2026-05-04 15:39 30.30057 121.29845 28433 ft 493 kts 53°
2026-05-04 15:40 30.31921 121.33173 28831 ft 498 kts 53°
2026-05-04 15:40 30.33827 121.36563 29220 ft 502 kts 53°